BEESAT-1

Last updated on Thu Oct 30 2025 00:03:10 GMT+0000 (Coordinated Universal Time)

1 35933U 09051C 25302.45116932 .00001553 00000+0 32584-3 0 9999 2 35933 98.4069 201.3395 0004272 215.1331 144.9588 14.61106169855489
UTC large
Height (km)
Speed (km/s)
/
Latitude / Longitude
Inclination (degrees)
Orbital Period (minutes)
Azimuth
Elevation
Range (km)
Doppler Factor

Next 0 passes for location: London (51.5072 / 0.1276)

Sorry there are no passes over London.